Change the Weather History Date:

Saturday, March 23, 2013

  Actual Average Record
Temperature  
Mean Temperature 49 °F -  
Max Temperature 54 °F 63 °F 82 °F (1991)
Min Temperature 44 °F 39 °F 19 °F (1968)
Degree Days  
Heating Degree Days 16    
Moisture  
Dew Point 46 °F    
Average Humidity 92    
Maximum Humidity 100    
Minimum Humidity 80    
Precipitation  
Precipitation 1.51 in - - ()
Sea Level Pressure  
Sea Level Pressure 29.87 in    
Wind  
Wind Speed 6 mph (East)    
Max Wind Speed 15 mph    
Max Gust Speed -    
Visibility 5 miles    
Events Rain , Thunderstorm    
Averages and records for this station are not official NWS values.
T = Trace of Precipitation, MM = Missing Value Source: NWS Daily Summary

Daily Weather History Graph

Daily Weather History Graph

Search for Another Location

Airport or City:

Trip Planner

Search our weather history database for the weather conditions in past years. The results will help you decide how hot, cold, wet, or windy it might be!

Date:

Astronomy

Mar. 23, 2013 Rise Set
Actual Time 6:46 AM CDT 7:02 PM CDT
Civil Twilight 6:21 AM CDT 7:27 PM CDT
Nautical Twilight 5:52 AM CDT 7:56 PM CDT
Astronomical Twilight 5:22 AM CDT 8:26 PM CDT
Moon 3:35 PM CDT (3/23) 4:14 AM CDT (3/23)
Length of Visible Light 13h 05m
Length of Day
12h 15m
Waxing Gibbous, 85% of the Moon is Illuminated
Mar 23
Waxing Gibbous
Mar 27
Full
Apr 2
Last Quarter
Apr 10
New
Apr 18
First Quarter

Hourly Weather History & Observations

Time (CDT) Temp. Windchill Dew Point Humidity Pressure Visibility Wind Dir Wind Speed Gust Speed Precip Events Conditions
12:53 AM 45.0 °F 43.5 °F 39.0 °F 80% 29.95 in 7.0 mi ESE 3.5 mph - 0.01 in Rain Light Rain
1:38 AM 44.6 °F 40.2 °F 41.0 °F 87% 29.94 in 3.0 mi SE 8.1 mph - 0.07 in Rain , Thunderstorm Heavy Rain
1:53 AM 44.1 °F 40.8 °F 42.1 °F 93% 29.95 in 4.0 mi East 5.8 mph - 0.14 in Rain , Thunderstorm Rain
2:06 AM 44.6 °F - 42.8 °F 93% 29.95 in 4.0 mi Calm Calm - 0.04 in Rain , Thunderstorm Rain
2:17 AM 44.6 °F 41.4 °F 42.8 °F 93% 29.94 in 1.8 mi SE 5.8 mph - 0.14 in Rain , Thunderstorm Heavy Thunderstorms and Rain
2:30 AM 44.6 °F 41.4 °F 42.8 °F 93% 29.93 in 2.5 mi SE 5.8 mph - 0.21 in Rain , Thunderstorm Thunderstorms and Rain
2:37 AM 44.6 °F 40.7 °F 42.8 °F 93% 29.93 in 5.0 mi NNE 6.9 mph - 0.21 in Rain , Thunderstorm Light Rain
2:48 AM 44.6 °F 41.4 °F 42.8 °F 93% 29.93 in 7.0 mi NE 5.8 mph - 0.22 in   Overcast
2:53 AM 44.1 °F 41.5 °F 43.0 °F 96% 29.93 in 7.0 mi NE 4.6 mph - 0.22 in   Overcast
3:25 AM 44.6 °F 41.4 °F 42.8 °F 93% 29.91 in 6.0 mi East 5.8 mph - N/A   Overcast
3:53 AM 45.0 °F 42.6 °F 43.0 °F 93% 29.89 in 6.0 mi East 4.6 mph - 0.00 in   Overcast
4:05 AM 44.6 °F 43.1 °F 44.6 °F 100% 29.90 in 6.0 mi ENE 3.5 mph - N/A   Overcast
4:18 AM 44.6 °F - 44.6 °F 100% 29.91 in 6.0 mi Calm Calm - 0.00 in Rain , Thunderstorm Light Rain
4:53 AM 45.0 °F 41.2 °F 44.1 °F 97% 29.91 in 3.0 mi ENE 6.9 mph - 0.05 in Rain , Thunderstorm Light Rain
5:05 AM 44.6 °F - 44.6 °F 100% 29.91 in 4.0 mi Calm Calm - 0.01 in Rain Light Rain
5:45 AM 44.6 °F 41.4 °F 44.6 °F 100% 29.92 in 5.0 mi NE 5.8 mph - 0.02 in Rain Light Rain
5:53 AM 45.0 °F 42.6 °F 44.1 °F 97% 29.93 in 5.0 mi NE 4.6 mph - 0.02 in Rain Light Rain
6:26 AM 46.4 °F - 44.6 °F 93% 29.95 in 2.5 mi Calm Calm - 0.05 in Rain Heavy Rain
6:39 AM 44.6 °F - 44.6 °F 100% 29.93 in 1.8 mi Calm Calm - 0.13 in Rain Rain
6:46 AM 44.6 °F 42.2 °F 44.6 °F 100% 29.92 in 2.5 mi ENE 4.6 mph - 0.14 in Rain Light Rain
6:53 AM 45.0 °F - 44.1 °F 97% 29.92 in 3.0 mi Calm Calm - 0.15 in Rain Rain
7:31 AM 46.4 °F 43.5 °F 44.6 °F 93% 29.93 in 5.0 mi East 5.8 mph - 0.02 in Rain Light Rain
7:53 AM 46.0 °F 43.9 °F 44.1 °F 93% 29.95 in 5.0 mi ENE 4.6 mph - 0.02 in Rain Light Rain
8:53 AM 46.0 °F 41.9 °F 44.1 °F 93% 29.95 in 8.0 mi East 8.1 mph - 0.00 in   Overcast
9:22 AM 46.4 °F 43.5 °F 44.6 °F 93% 29.94 in 6.0 mi East 5.8 mph - N/A   Overcast
9:41 AM 46.4 °F 42.9 °F 44.6 °F 93% 29.95 in 6.0 mi East 6.9 mph - N/A   Overcast
9:53 AM 46.9 °F - 44.1 °F 90% 29.95 in 5.0 mi East 5.8 mph - N/A   Overcast
10:18 AM 46.4 °F 44.3 °F 44.6 °F 93% 29.95 in 5.0 mi East 4.6 mph - N/A   Overcast
10:53 AM 48.9 °F - 46.0 °F 90% 29.94 in 6.0 mi ENE 6.9 mph - N/A   Overcast
11:53 AM 51.1 °F - 46.9 °F 86% 29.92 in 8.0 mi East 10.4 mph - N/A   Overcast
12:38 PM 51.8 °F - 46.4 °F 82% 29.91 in 9.0 mi Variable 6.9 mph - N/A   Overcast
12:53 PM 52.0 °F - 48.0 °F 86% 29.91 in 8.0 mi East 5.8 mph - N/A   Overcast
1:53 PM 52.0 °F - 48.0 °F 86% 29.90 in 8.0 mi ENE 5.8 mph - N/A   Overcast
2:53 PM 54.0 °F - 48.0 °F 80% 29.86 in 8.0 mi NE 6.9 mph - N/A   Overcast
3:53 PM 53.1 °F - 48.9 °F 86% 29.87 in 4.0 mi North 9.2 mph - 0.02 in Rain Rain
3:56 PM 51.8 °F - 48.2 °F 88% 29.87 in 2.5 mi NNE 8.1 mph - 0.03 in Rain , Thunderstorm Rain
4:07 PM 51.8 °F - 48.2 °F 88% 29.88 in 1.8 mi NNE 6.9 mph - 0.08 in Rain , Thunderstorm Rain
4:20 PM 51.8 °F - 48.2 °F 88% 29.84 in 2.0 mi NNE 10.4 mph - 0.13 in Rain , Thunderstorm Rain
4:29 PM 51.8 °F - 50.0 °F 94% 29.87 in 3.0 mi NNE 8.1 mph - 0.14 in Rain Light Rain
4:53 PM 53.1 °F - 51.1 °F 93% 29.83 in 5.0 mi ENE 8.1 mph - 0.14 in   Mostly Cloudy
5:07 PM 53.6 °F - 50.0 °F 88% 29.82 in 6.0 mi East 11.5 mph - N/A   Scattered Clouds
5:53 PM 53.1 °F - 50.0 °F 89% 29.78 in 8.0 mi East 8.1 mph - N/A   Scattered Clouds
6:51 PM 51.8 °F - 50.0 °F 94% 29.79 in 8.0 mi ESE 4.6 mph - N/A   Mostly Cloudy
6:53 PM 52.0 °F - 50.0 °F 93% 29.79 in 8.0 mi ESE 5.8 mph - N/A   Mostly Cloudy
7:53 PM 52.0 °F - 48.9 °F 89% 29.74 in 9.0 mi ESE 9.2 mph - N/A   Mostly Cloudy
8:53 PM 51.1 °F - 48.0 °F 89% 29.74 in 8.0 mi East 8.1 mph - 0.01 in Rain Light Rain
9:10 PM 51.8 °F - 48.2 °F 88% 29.71 in 7.0 mi NE 9.2 mph - 0.00 in Rain Light Rain
9:13 PM 51.8 °F - 48.2 °F 88% 29.73 in 7.0 mi Variable 4.6 mph - 0.00 in Rain , Thunderstorm Light Rain
9:37 PM 50.0 °F - 48.2 °F 94% 29.78 in 2.5 mi NNE 5.8 mph - 0.15 in Rain , Thunderstorm Heavy Rain
9:53 PM 51.1 °F - 48.9 °F 92% 29.82 in 3.0 mi Calm Calm - 0.21 in Rain , Thunderstorm Rain
10:09 PM 50.0 °F - 48.2 °F 94% 29.79 in 2.5 mi ESE 5.8 mph - 0.08 in Rain , Thunderstorm Heavy Rain
10:16 PM 50.0 °F - 48.2 °F 94% 29.79 in 2.5 mi East 4.6 mph - 0.12 in Rain , Thunderstorm Heavy Rain
10:31 PM 50.0 °F - 48.2 °F 94% 29.75 in 3.0 mi ESE 8.1 mph - 0.20 in Rain , Thunderstorm Heavy Thunderstorms and Rain
10:53 PM 51.1 °F - 48.9 °F 92% 29.77 in 4.0 mi SSE 10.4 mph - 0.30 in Rain , Thunderstorm Rain
11:02 PM 51.8 °F - 50.0 °F 94% 29.78 in 4.0 mi SSE 9.2 mph - 0.03 in Rain Rain
11:10 PM 51.8 °F - 50.0 °F 94% 29.77 in 3.0 mi SSE 10.4 mph - 0.07 in Rain , Thunderstorm Thunderstorms and Rain
11:25 PM 51.8 °F - 50.0 °F 94% 29.75 in 3.0 mi SSE 15.0 mph - 0.15 in Rain Rain
11:53 PM 51.1 °F - 50.0 °F 96% 29.69 in 5.0 mi ESE 9.2 mph - 0.22 in Rain Rain